Weather History for Le Puy, France

Change the Weather History Date:

Saturday, October 6, 2012

  Actual Average Record
Temperature  
Mean Temperature 58 °F -  
Max Temperature 75 °F - - ()
Min Temperature 42 °F - - ()
Degree Days  
Heating Degree Days 6    
Growing Degree Days 8 (Base 50)    
Moisture  
Dew Point 47 °F    
Average Humidity 68    
Maximum Humidity 100    
Minimum Humidity 23    
Precipitation  
Precipitation 0.08 in - - ()
Sea Level Pressure  
Sea Level Pressure 30.12 in    
Wind  
Wind Speed 2 mph ()    
Max Wind Speed 7 mph    
Max Gust Speed -    
Visibility 6.6 miles    
Events Rain    
T = Trace of Precipitation, MM = Missing Value Source: Averaged Metar Reports

Daily Weather History Graph

Daily Weather History Graph

Search for Another Location

Airport:

Trip Planner

Search our weather history database for the weather conditions in past years. The results will help you decide how hot, cold, wet, or windy it might be!

Date:

Astronomy

Oct. 06, 2012 Rise Set
Actual Time 7:49 AM CEST 7:15 PM CEST
Civil Twilight 7:20 AM CEST 7:44 PM CEST
Nautical Twilight 6:46 AM CEST 8:18 PM CEST
Astronomical Twilight 6:11 AM CEST 8:53 PM CEST
Moon 11:05 PM CEST (10/6) 1:44 PM CEST (10/6)
Length of Visible Light 12h 24m
Length of Day
11h 26m
Waning Gibbous, 68% of the Moon is Illuminated
Oct 6
Waning Gibbous
Oct 8
Last Quarter
Oct 15
New
Oct 22
First Quarter
Oct 29
Full

Hourly Weather History & Observations

Time (CEST) Temp. Windchill Dew Point Humidity Pressure Visibility Wind Dir Wind Speed Gust Speed Precip Events Conditions
12:00 AM 53.6 °F - 50.0 °F 88% 30.15 in 6.2 mi Variable 1.2 mph - N/A   Unknown
12:30 AM 51.8 °F - 50.0 °F 94% 30.15 in 6.2 mi Variable 2.3 mph - N/A   Unknown
1:00 AM 51.8 °F - 50.0 °F 94% 30.15 in 6.2 mi Variable 3.5 mph - N/A   Unknown
1:30 AM 50.0 °F - 48.2 °F 94% 30.15 in 6.2 mi Variable 1.2 mph - N/A   Unknown
2:00 AM 48 °F - 46 °F 91%  in 7 mi NNW 2.3 mph - -   Clear
2:00 AM 48.2 °F - 46.4 °F 93% 30.15 in 6.2 mi Variable 2.3 mph - N/A   Unknown
2:30 AM 46.4 °F - 46.4 °F 100% 30.15 in 6.2 mi Calm Calm - N/A   Unknown
3:00 AM 46.4 °F - 46.4 °F 100% 30.12 in 6.2 mi Variable 2.3 mph - N/A   Unknown
3:30 AM 46.4 °F 45.2 °F 44.6 °F 93% 30.12 in 6.2 mi Variable 3.5 mph - N/A   Unknown
4:00 AM 48.2 °F - 46.4 °F 93% 30.12 in 6.2 mi Calm Calm - N/A   Unknown
4:30 AM 46.4 °F - 44.6 °F 93% 30.12 in 6.2 mi Variable 2.3 mph - N/A   Unknown
5:00 AM 46.4 °F 45.2 °F 44.6 °F 93% 30.12 in 6.2 mi Variable 3.5 mph - N/A   Unknown
5:30 AM 46.4 °F - 42.8 °F 87% 30.12 in 6.2 mi Variable 2.3 mph - N/A   Unknown
6:30 AM 44.6 °F - 42.8 °F 93% 30.12 in 6.2 mi SW 2.3 mph - N/A   Unknown
7:00 AM 42.8 °F - 41.0 °F 93% 30.12 in 6.2 mi Variable 2.3 mph - N/A   Unknown
7:30 AM 42.8 °F - 42.8 °F 100% 30.15 in 6.2 mi Calm Calm - N/A   Unknown
8:00 AM 44 °F - 43 °F 95%  in 11 mi South 2.3 mph - -   Clear
8:00 AM 44.6 °F - 42.8 °F 93% 30.15 in 6.2 mi Variable 2.3 mph - N/A   Unknown
8:30 AM 48.2 °F - 44.6 °F 87% 30.15 in 6.2 mi Variable 2.3 mph - N/A   Unknown
9:30 AM 53.6 °F - 48.2 °F 82% 30.15 in 6.2 mi NNE 1.2 mph - N/A   Unknown
10:00 AM 55.4 °F - 48.2 °F 77% 30.15 in 6.2 mi Calm Calm - N/A   Unknown
10:30 AM 59.0 °F - 48.2 °F 67% 30.15 in 6.2 mi Variable 2.3 mph - N/A   Unknown
11:00 AM 60.8 °F - 50.0 °F 68% 30.15 in 6.2 mi Variable 2.3 mph - N/A   Unknown
11:30 AM 62.6 °F - 51.8 °F 68% 30.15 in 6.2 mi Variable 2.3 mph - N/A   Unknown
12:00 PM 66.2 °F - 51.8 °F 60% 30.15 in 6.2 mi Variable 2.3 mph - N/A   Unknown
12:30 PM 68.0 °F - 51.8 °F 56% 30.15 in 6.2 mi Variable 3.5 mph - N/A   Unknown
1:00 PM 69.8 °F - 53.6 °F 56% 30.15 in 6.2 mi ESE 4.6 mph - N/A   Unknown
1:30 PM 73.4 °F - 42.8 °F 33% 30.12 in 6.2 mi West 3.5 mph - N/A   Unknown
2:00 PM 74 °F - 44 °F 23%  in 12 mi SSW 3.5 mph - -   Clear
2:00 PM 73.4 °F - 44.6 °F 36% 30.12 in 6.2 mi SSW 3.5 mph - N/A   Unknown
2:30 PM 75.2 °F - 42.8 °F 31% 30.12 in 6.2 mi Variable 3.5 mph - N/A   Unknown
3:00 PM 75.2 °F - 42.8 °F 31% 30.12 in 6.2 mi SW 4.6 mph - N/A   Unknown
4:00 PM 73.4 °F - 42.8 °F 33% 30.09 in 6.2 mi WSW 5.8 mph - N/A   Unknown
4:30 PM 73.4 °F - 41.0 °F 31% 30.09 in 6.2 mi SSW 4.6 mph - N/A   Unknown
5:00 PM 73.4 °F - 46.4 °F 38% 30.09 in 6.2 mi WSW 4.6 mph - N/A   Unknown
5:30 PM 71.6 °F - 48.2 °F 43% 30.09 in 6.2 mi WSW 6.9 mph - N/A   Unknown
6:00 PM 69.8 °F - 51.8 °F 53% 30.09 in 6.2 mi SW 4.6 mph - N/A   Unknown
6:30 PM 68.0 °F - 50.0 °F 52% 30.09 in 6.2 mi SW 3.5 mph - N/A   Unknown
7:00 PM 66.2 °F - 48.2 °F 52% 30.09 in 6.2 mi Variable 3.5 mph - N/A   Unknown
7:30 PM 66.2 °F - 46.4 °F 49% 30.09 in 6.2 mi WSW 5.8 mph - N/A   Unknown
8:00 PM 65 °F - 47 °F 42%  in 12 mi WSW 4.6 mph - -   Clear
8:00 PM 66.2 °F - 48.2 °F 52% 30.09 in 6.2 mi WSW 4.6 mph - N/A   Partly Cloudy
8:30 PM 64.4 °F - 48.2 °F 56% 30.09 in 6.2 mi Variable 2.3 mph - N/A   Unknown
9:00 PM 62.6 °F - 50.0 °F 63% 30.09 in 6.2 mi Calm Calm - N/A   Unknown
9:30 PM 60.8 °F - 48.2 °F 63% 30.09 in 6.2 mi Variable 2.3 mph - N/A   Unknown
10:00 PM 62.6 °F - 50.0 °F 63% 30.12 in 6.2 mi West 5.8 mph - N/A   Unknown
10:30 PM 62.6 °F - 50.0 °F 63% 30.12 in 6.2 mi West 4.6 mph - N/A   Unknown
11:00 PM 62.6 °F - 48.2 °F 59% 30.12 in 6.2 mi Variable 1.2 mph - N/A Rain Light Rain
11:30 PM 60.8 °F - 50.0 °F 68% 30.15 in 6.2 mi Variable 3.5 mph - N/A Rain Light Rain